Wind_Speed
14 13 14 15 12 10 8 7 5 5 4 4 7 10 9 9 8 11 12 13 12 12 12 12 11 11 11 12 12 11 11 12 11 11 12 11 11 12 11 11 11 11 11
13 13 12 10 10 9 9 9 9 9 10 10 11 10 9 8 11 12 12 13 13 12 11 11 11 11 10 11 10 11 11 11 12 12 11 11 11 10 10 10 10 10 10
14 12 10 10 9 8 9 10 10 12 12 11 12 12 11 11 12 12 13 13 13 11 10 10 10 10 10 10 10 11 11 11 11 11 11 11 10 10 10 9 9 9 9
15 12 11 10 8 8 9 10 11 13 11 12 13 13 13 12 12 13 13 12 11 10 9 9 9 9 9 9 10 10 11 11 11 11 11 12 11 10 10 10 10 10 9
14 12 10 6 8 9 9 10 10 10 12 12 12 12 11 11 13 12 12 11 9 8 8 9 8 8 8 8 8 9 9 9 9 10 10 10 10 10 11 11 11 11 11
13 12 8 8 10 10 10 10 11 11 9 9 9 8 10 11 12 11 10 9 8 7 7 7 6 7 7 7 9 9 10 10 11 10 10 10 10 10 10 10 11 11 11
12 10 9 10 10 10 11 10 6 4 6 7 7 7 8 10 10 9 9 8 7 6 6 6 6 6 7 8 8 8 9 9 10 11 11 11 11 11 11 11 12 12 13
14 12 11 12 11 11 11 11 8 6 6 8 7 7 8 9 9 8 8 7 6 4 4 5 6 5 5 6 6 7 8 8 8 8 9 9 10 11 12 12 13 14 14
16 14 15 13 12 12 13 13 11 9 8 9 9 9 9 9 8 8 7 5 4 3 3 4 4 4 5 6 7 8 8 8 9 10 11 12 12 13 14 15 15 16 16
15 16 18 16 15 13 12 13 14 13 12 9 8 8 8 8 7 6 5 3 2 2 2 2 2 4 5 5 6 7 8 9 10 11 12 13 14 15 15 15 15 15 15
16 19 22 19 16 13 12 12 13 13 12 11 9 8 7 6 5 4 3 2 1 1 1 1 2 3 4 6 7 8 9 10 11 12 13 14 14 15 15 14 15 15 15
17 19 20 20 15 12 12 14 13 13 12 11 10 8 6 5 4 2 1 1 1 0 1 2 3 5 6 6 7 8 9 11 12 13 15 16 15 14 14 14 14 14 14
18 16 17 17 15 13 12 13 13 12 10 10 8 6 5 4 3 3 3 2 2 2 3 4 5 5 7 8 10 11 12 13 14 15 15 15 15 16 15 15 16 15 15
18 16 15 16 14 13 12 12 12 12 11 8 7 5 5 4 4 4 4 4 5 5 6 7 8 9 9 10 12 13 14 15 16 16 15 15 15 14 15 15 15 15 17
20 17 16 15 14 14 12 10 9 9 9 8 7 7 6 5 6 6 6 7 8 8 9 10 11 11 12 12 13 14 14 15 14 14 15 15 15 15 14 14 15 17 19
21 19 17 16 15 14 13 13 11 9 9 9 8 9 9 9 8 8 9 10 10 10 11 11 12 13 13 13 14 14 15 14 14 13 14 14 13 13 15 17 18 19 20
21 21 20 18 17 16 16 16 15 15 14 13 12 12 12 11 11 11 11 12 13 12 12 12 13 14 15 14 15 15 16 14 13 12 12 12 13 16 17 19 20 21 21
24 22 23 22 20 18 18 18 18 17 16 16 15 15 14 14 14 15 15 15 15 14 14 14 15 16 16 15 15 15 14 13 11 11 10 13 16 18 20 21 21 22 23
24 25 24 24 23 22 22 22 21 20 20 19 18 18 17 17 17 18 17 17 17 16 16 16 16 15 15 14 15 15 12 10 9 10 12 15 18 20 20 22 23 24 25
27 27 27 27 26 26 26 26 25 23 22 21 20 20 20 20 20 19 20 19 18 19 18 17 17 16 15 14 12 10 8 8 10 12 14 16 18 19 21 22 24 25 26
30 31 29 29 28 28 27 27 25 23 23 24 23 24 23 23 22 22 20 20 20 20 19 19 18 17 16 13 9 8 6 8 10 13 15 17 18 20 21 23 25 26 27
32 31 31 30 30 29 29 28 28 27 28 28 28 27 26 23 22 22 22 22 21 21 20 19 19 18 15 11 8 7 7 9 11 14 16 17 20 21 24 26 27 28 28
31 32 31 29 30 31 30 30 31 31 30 29 27 26 24 24 23 23 24 24 23 22 21 20 19 18 15 9 9 8 9 10 12 14 15 18 21 22 25 26 27 28 28
29 28 28 29 29 29 30 32 31 29 29 28 27 28 27 27 26 25 25 26 25 24 22 21 19 18 15 10 10 11 11 12 13 14 16 19 22 23 25 26 27 28 29
27 26 25 27 29 30 31 30 31 31 30 29 30 31 30 27 27 26 26 26 25 25 24 21 20 18 15 13 13 13 13 13 14 16 17 19 23 25 26 27 28 29 30
30 29 29 30 31 31 31 31 32 32 32 32 32 33 33 30 29 28 26 26 26 26 25 23 21 19 16 15 15 15 15 16 18 21 24 25 26 25 26 27 28 29 30
Wind_Direction
148 138 130 134 121 106 98 89 93 108 130 148 134 133 128 120 101 99 101 100 101 95 91 88 87 81 75 68 66 64 60 56 53 50 48 44 42 39 37 34 32 24 22
150 146 141 121 112 109 96 83 86 101 115 128 126 132 132 121 110 108 102 103 99 97 95 87 80 76 73 69 63 59 54 50 46 41 40 37 35 32 30 30 26 21 15
153 158 147 132 116 107 98 92 97 107 110 117 123 119 124 120 110 103 104 103 100 94 87 83 77 68 61 56 53 51 48 47 45 40 35 34 33 27 23 22 22 19 13
161 161 153 138 129 128 118 102 106 113 110 105 115 118 119 114 109 108 107 103 98 93 85 80 74 65 61 56 51 48 46 43 42 41 35 30 27 22 18 18 15 13 8
164 165 160 163 155 148 123 110 109 115 117 104 107 110 115 115 111 114 108 104 100 95 84 76 67 60 56 53 51 48 46 45 43 40 34 30 25 19 16 15 13 8 5
167 171 169 157 155 144 129 117 118 108 104 100 98 104 117 117 115 112 109 106 98 88 79 76 70 60 53 48 46 44 42 39 36 32 30 26 24 18 16 10 7 5 2
166 177 173 161 153 142 131 126 138 132 117 103 96 121 124 121 117 114 105 103 104 94 82 69 61 55 49 45 42 42 41 37 31 26 23 20 18 14 9 6 3 1 359
171 176 175 167 155 148 135 125 122 118 117 113 125 139 132 119 114 110 110 108 101 91 71 54 44 38 42 45 43 40 35 32 28 24 19 15 11 8 5 1 358 356 354
176 180 178 168 163 150 146 141 140 136 129 134 146 149 134 127 127 126 123 117 104 77 53 39 32 34 37 32 30 27 24 21 16 11 5 3 2 359 355 353 352 349 347
186 186 180 168 157 150 156 151 146 142 146 149 158 151 140 140 134 130 132 130 118 88 54 41 43 41 32 26 22 16 11 7 4 357 353 352 350 349 347 345 344 341 339
187 179 173 170 165 161 159 155 151 149 153 156 161 159 153 140 143 141 139 129 102 93 95 44 27 18 7 3 1 357 352 348 344 344 344 343 342 342 340 338 338 337 338
186 185 176 176 175 175 171 162 160 159 160 161 162 161 155 155 149 154 156 170 203 209 347 336 338 339 337 336 334 333 335 334 334 338 339 339 340 337 335 337 342 343 344
178 180 174 179 182 181 177 170 166 165 170 169 167 169 166 171 184 195 212 235 252 279 290 294 299 302 306 316 323 328 328 328 332 334 335 337 336 337 339 342 341 342 343
187 187 190 184 185 184 181 180 177 175 175 180 182 186 195 206 220 241 257 272 285 290 294 296 296 300 309 317 321 324 326 329 329 329 332 334 332 335 336 335 340 339 339
194 193 193 192 190 185 186 190 194 194 191 196 204 209 218 227 239 246 256 268 277 284 290 295 300 308 313 317 318 321 322 322 323 324 327 329 332 333 331 335 331 332 332
199 195 194 195 196 197 194 196 201 205 213 221 228 235 237 238 243 254 262 266 270 277 285 293 300 305 308 312 314 314 315 315 316 326 325 326 331 331 329 329 330 332 329
201 200 196 199 201 202 207 206 206 212 218 225 232 241 248 255 259 264 270 275 277 278 283 290 296 301 304 308 309 310 312 314 319 317 322 325 323 326 327 329 328 326 326
209 206 204 203 203 210 215 221 221 223 229 235 239 245 250 257 262 265 268 272 275 279 284 291 295 299 303 308 307 307 310 312 314 315 319 321 323 325 326 325 326 325 323
217 215 215 213 211 211 217 224 230 232 235 239 242 249 256 260 266 269 273 273 276 281 285 290 292 295 300 301 298 302 303 303 310 317 320 321 323 322 322 325 324 323 324
220 221 221 222 221 224 225 228 232 236 242 248 254 257 260 263 264 267 270 271 275 279 286 289 291 295 298 294 294 298 295 299 310 319 321 319 317 320 322 322 320 322 321
225 226 225 228 231 234 235 237 241 246 250 253 255 256 258 260 263 264 264 269 274 280 284 287 289 288 290 287 280 280 281 298 311 316 316 315 315 317 319 317 319 319 319
229 233 233 234 236 238 241 245 248 247 247 249 252 255 259 261 263 266 270 273 276 278 281 283 283 285 289 278 268 261 277 298 304 309 311 311 313 314 314 315 315 316 317
234 235 238 241 243 245 246 247 248 249 251 254 258 260 264 263 265 269 273 276 277 278 281 280 279 284 282 268 250 261 275 286 298 302 302 304 306 309 310 312 313 313 314
235 236 237 238 241 244 246 247 249 252 252 254 256 257 258 260 264 268 273 276 278 279 280 278 279 281 274 255 254 266 275 286 297 299 300 305 307 309 311 311 311 312 313
231 232 237 239 239 241 244 248 250 251 252 253 256 259 261 264 265 267 269 272 275 274 275 277 278 273 261 253 261 270 284 295 299 303 306 307 308 310 309 309 309 311 314
232 234 238 241 242 244 246 248 250 253 256 257 260 265 267 266 266 266 269 274 275 273 274 271 270 260 245 253 265 279 293 301 308 311 313 313 313 312 310 309 310 314 315
Height
3201 3203 3204 3205 3204 3204 3203 3204 3203 3203 3203 3204 3203 3204 3204 3205 3205 3204 3204 3204 3204 3203 3203 3202 3202 3201 3200 3199 3198 3197 3196 3195 3193 3192 3191 3190 3189 3188 3187 3186 3184 3183 3181
3202 3203 3204 3204 3204 3205 3204 3204 3204 3204 3204 3205 3204 3205 3206 3206 3206 3205 3205 3205 3205 3205 3205 3204 3203 3203 3202 3200 3199 3198 3197 3197 3195 3194 3193 3191 3190 3189 3187 3187 3185 3184 3182
3202 3204 3205 3205 3205 3205 3205 3205 3206 3205 3206 3205 3205 3206 3207 3207 3207 3207 3208 3207 3207 3207 3206 3205 3205 3204 3203 3202 3201 3200 3199 3198 3196 3195 3194 3192 3191 3190 3188 3187 3186 3184 3183
3202 3204 3206 3206 3207 3207 3207 3207 3207 3207 3207 3207 3207 3208 3208 3209 3209 3209 3209 3209 3208 3208 3207 3206 3206 3205 3205 3204 3203 3202 3200 3199 3198 3197 3195 3194 3192 3191 3190 3188 3186 3185 3183
3202 3205 3206 3207 3207 3207 3207 3207 3208 3208 3209 3210 3210 3210 3210 3211 3210 3210 3210 3209 3209 3209 3209 3208 3208 3207 3206 3205 3203 3202 3201 3199 3198 3197 3195 3194 3193 3192 3190 3189 3187 3185 3184
3202 3205 3206 3207 3207 3208 3208 3208 3209 3210 3211 3211 3211 3212 3212 3212 3212 3212 3211 3211 3211 3211 3211 3209 3208 3208 3207 3206 3204 3203 3202 3201 3199 3198 3196 3195 3193 3191 3190 3188 3186 3185 3183
3202 3205 3206 3207 3207 3208 3208 3210 3211 3212 3213 3213 3213 3214 3214 3214 3213 3213 3213 3213 3212 3212 3211 3211 3210 3209 3208 3207 3206 3204 3203 3201 3200 3199 3197 3196 3194 3192 3190 3189 3187 3186 3184
3202 3205 3206 3206 3208 3209 3209 3210 3212 3213 3214 3214 3215 3215 3215 3215 3214 3214 3214 3214 3214 3212 3212 3211 3210 3209 3208 3207 3206 3205 3203 3202 3200 3198 3197 3195 3193 3192 3191 3189 3188 3186 3184
3202 3204 3206 3207 3208 3209 3208 3209 3210 3212 3214 3214 3215 3215 3214 3214 3214 3214 3214 3215 3214 3213 3212 3211 3210 3210 3209 3208 3206 3206 3204 3203 3201 3200 3198 3197 3195 3193 3192 3190 3188 3186 3184
3202 3204 3206 3208 3209 3209 3210 3209 3209 3211 3213 3215 3215 3216 3215 3215 3215 3215 3215 3214 3213 3213 3212 3212 3211 3210 3209 3207 3206 3205 3204 3203 3201 3200 3198 3196 3195 3193 3191 3190 3187 3185 3182
3202 3203 3205 3208 3209 3210 3211 3211 3211 3211 3213 3213 3215 3216 3216 3216 3215 3216 3216 3215 3215 3214 3213 3212 3211 3210 3209 3208 3207 3206 3204 3202 3200 3199 3197 3195 3193 3192 3190 3187 3185 3183 3181
3203 3205 3205 3207 3209 3210 3211 3211 3212 3212 3213 3214 3215 3215 3215 3215 3215 3215 3215 3215 3215 3215 3214 3212 3212 3210 3209 3208 3206 3205 3203 3201 3200 3198 3196 3194 3192 3190 3188 3186 3184 3182 3180
3202 3205 3206 3208 3209 3211 3211 3212 3212 3213 3215 3215 3215 3215 3215 3215 3214 3214 3214 3215 3214 3213 3213 3212 3211 3210 3209 3207 3206 3204 3202 3200 3199 3197 3195 3193 3191 3189 3187 3185 3183 3181 3178
3202 3204 3206 3207 3209 3210 3211 3213 3213 3213 3214 3215 3215 3215 3215 3215 3215 3215 3215 3214 3213 3212 3211 3211 3210 3209 3208 3207 3205 3204 3202 3200 3198 3195 3193 3191 3189 3187 3185 3183 3181 3179 3177
3200 3202 3204 3207 3208 3208 3210 3212 3214 3214 3215 3215 3215 3214 3214 3214 3215 3214 3213 3213 3212 3211 3210 3210 3209 3208 3207 3206 3204 3202 3201 3198 3196 3194 3192 3190 3188 3186 3184 3182 3180 3178 3176
3199 3200 3203 3205 3206 3208 3209 3210 3212 3213 3214 3214 3214 3214 3213 3213 3213 3213 3212 3212 3211 3210 3209 3208 3208 3207 3205 3204 3202 3200 3198 3196 3194 3192 3190 3187 3185 3183 3182 3181 3178 3176 3173
3198 3200 3201 3203 3204 3205 3207 3208 3208 3209 3210 3211 3211 3211 3212 3212 3211 3211 3211 3210 3210 3209 3208 3207 3206 3205 3203 3202 3200 3197 3195 3193 3192 3190 3188 3186 3183 3182 3180 3178 3175 3172 3169
3195 3198 3198 3200 3202 3203 3204 3205 3205 3206 3207 3208 3209 3209 3209 3209 3208 3208 3208 3208 3207 3207 3206 3206 3204 3203 3201 3200 3197 3195 3193 3191 3190 3189 3186 3184 3182 3179 3177 3174 3171 3168 3165
3193 3194 3196 3197 3198 3199 3200 3201 3202 3203 3204 3204 3205 3206 3206 3206 3206 3205 3205 3205 3204 3204 3203 3203 3202 3201 3199 3197 3194 3193 3191 3189 3188 3187 3185 3182 3179 3177 3174 3171 3167 3164 3161
3189 3190 3192 3193 3194 3195 3196 3197 3198 3200 3201 3202 3202 3202 3202 3202 3202 3202 3201 3202 3201 3201 3200 3199 3198 3198 3197 3195 3193 3191 3189 3187 3186 3184 3182 3179 3177 3174 3172 3168 3164 3162 3158
3184 3185 3187 3190 3192 3192 3193 3194 3195 3197 3198 3198 3198 3197 3197 3197 3198 3198 3197 3197 3197 3197 3196 3196 3194 3194 3193 3192 3190 3189 3188 3186 3184 3182 3179 3176 3174 3171 3169 3165 3161 3158 3154
3179 3182 3183 3185 3187 3188 3189 3191 3192 3192 3192 3192 3192 3193 3193 3193 3193 3194 3193 3194 3194 3193 3193 3192 3191 3190 3189 3188 3188 3187 3185 3184 3181 3179 3176 3173 3171 3169 3165 3160 3157 3154 3150
3174 3176 3179 3181 3183 3184 3185 3186 3186 3187 3187 3187 3188 3188 3188 3188 3188 3188 3188 3189 3189 3188 3188 3187 3186 3185 3185 3185 3184 3184 3183 3181 3179 3176 3173 3170 3168 3165 3161 3157 3153 3150 3146
3169 3172 3173 3175 3176 3178 3179 3179 3180 3182 3182 3183 3183 3182 3182 3182 3183 3183 3183 3184 3184 3183 3183 3182 3181 3180 3180 3180 3180 3179 3178 3177 3175 3174 3170 3167 3164 3161 3157 3153 3148 3144 3140
3163 3166 3168 3169 3170 3171 3172 3173 3174 3175 3176 3176 3176 3176 3176 3177 3177 3178 3179 3178 3178 3177 3177 3176 3176 3175 3175 3175 3174 3173 3172 3171 3170 3168 3165 3162 3159 3156 3152 3148 3144 3139 3135
3158 3159 3161 3162 3163 3164 3165 3166 3167 3168 3170 3170 3170 3170 3169 3170 3171 3172 3172 3172 3171 3171 3171 3170 3170 3171 3171 3171 3170 3168 3166 3165 3162 3160 3158 3156 3153 3149 3146 3142 3137 3134 3130